Tracking 31027 objects as of 19-Jul-2025
HD Live streaming from Space Station
objects crossing your sky now

STARLINK-5766

Track STARLINK-5766 now!
10-day predictions
STARLINK-5766 is classified as:


NORAD ID: 56025
Int'l Code: 2023-042AR
Perigee: 565.2 km
Apogee: 567.2 km
Inclination: 43.0 °
Period: 95.8 minutes
Semi major axis: 6937 km
RCS: Unknown
Launch date: March 24, 2022
Source: United States (US)
Launch site: AIR FORCE EASTERN TEST RANGE (AFETR)
Your satellite tracking list
IRIDIUM 106
Track 1 satellite(s)




NASA's NSSDC Master Catalog

Two Line Element Set (TLE):
1 56025U 23042AR  25199.48124532  .00000283  00000-0  36015-4 0  9996
2 56025  43.0023 236.2059 0001415 278.3644  81.7037 15.02537021128164
Source of the keplerian elements: AFSPC